Regional Weather Roundup
Issued by NWS

Home | Current Version | Previous Version | Graphics & Text | Print | Product List | Glossary On
Versions: 1 2 3 4 5 6 7 8 9 10 11 12 13 14 15 16 17 18 19 20 21 22 23 24 25 26 27 28 29 30 31 32 33 34 35 36 37 38 39 40 41 42 43 44 45 46 47 48 49 50
000
ASUS43 KFSD 020302
RWRSD

WEATHER ROUNDUP FOR SOUTH DAKOTA
NATIONAL WEATHER SERVICE SIOUX FALLS SD
1000 PM CDT WED OCT 01 2014

NOTE: "FAIR" INDICATES FEW OR NO CLOUDS BELOW 12,000 FEET WITH NO
SIGNIFICANT WEATHER AND/OR OBSTRUCTIONS TO VISIBILITY.


SDZ001>005-009-010-012>017-020400-
NORTHWEST AND NORTH CENTRAL SOUTH DAKOTA

CITY           SKY/WX    TMP DP  RH WIND       PRES   REMARKS
BUFFALO          N/A     44  40  85 W5        29.87R
FAITH            N/A     49  44  83 W6        29.92R
MOBRIDGE       MOCLDY    52  47  83 NW7       29.86R
$$

SDZ012>016-024>037-041>051-057-063-072>074-020400-
SOUTHWEST AND SOUTH CENTRAL SOUTH DAKOTA

CITY           SKY/WX    TMP DP  RH WIND       PRES   REMARKS
RAPID CTY ARPT CLOUDY    49  43  80 W5        29.97R
PIERRE         CLOUDY    56  46  69 NW7       29.89R
CUSTER         CLOUDY    40  37  89 SW3       30.01R
ELLSWORTH AFB  CLOUDY    49  43  79 W6        29.96R
PHILIP         CLOUDY    53  47  79 NW3       29.93R
PINE RIDGE     LGT RAIN  49  47  93 CALM      29.99R
WINNER         MOCLDY    58  47  66 N13       29.89R
$$

SDZ004>011-016>023-039-040-020400-
NORTHEAST SOUTH DAKOTA

CITY           SKY/WX    TMP DP  RH WIND       PRES   REMARKS
ABERDEEN       PTCLDY    54  47  77 W8        29.84R
WATERTOWN      CLEAR     51  46  83 N5        29.85R
SISSETON         N/A     53  48  83 NW6       29.81R
$$

SDZ017-020-022-023-036>040-048>070-020400-
SOUTHEAST SOUTH DAKOTA

CITY           SKY/WX    TMP DP  RH WIND       PRES   REMARKS
SIOUX FALLS    PTCLDY    58  53  84 CALM      29.81S
HURON          PTCLDY    53  47  79 N5        29.85R
CHAMBERLAIN    MOCLDY    57  47  68 N12       29.87R
MITCHELL       CLEAR     60  48  64 N12       29.85R
YANKTON        CLEAR     57  52  82 NW9       29.81S
$$

ABBREVIATIONS USED IN REMARKS
   TC - TEMPERATURE IN CELSIUS
  WCI - WIND CHILL INDEX
   HX - HEAT INDEX
  VSB - VISIBILITY




USA.gov is the U.S. government's official web portal to all federal, state and local government web resources and services.